This is the latest recevied weather packets stored in our database for station/object DB7GV-8. If no packets are shown the sender has not sent any weather packets the latest 10 day(s).
| Time | Temp. | Humidity | Pressure | Rain* | Wind** | Luminosity | Snow |
|---|---|---|---|---|---|---|---|
| 1777955769 | 10° C | 84% | 1011.2 hPa | - | - | - | - |
| 1777954863 | 9.44° C | 84% | 1011.3 hPa | - | - | - | - |
| 1777953958 | 10° C | 83% | 1011.2 hPa | - | - | - | - |
| 1777953053 | 9.44° C | 83% | 1011.3 hPa | - | - | - | - |
| 1777952147 | 10° C | 83% | 1011.6 hPa | - | - | - | - |
| 1777951242 | 10° C | 83% | 1011.6 hPa | - | - | - | - |
| 1777950337 | 10° C | 83% | 1011.7 hPa | - | - | - | - |
| 1777949431 | 10° C | 82% | 1011.8 hPa | - | - | - | - |
| 1777947620 | 10.56° C | 81% | 1011.8 hPa | - | - | - | - |
| 1777946714 | 10.56° C | 81% | 1011.9 hPa | - | - | - | - |
| 1777945809 | 10.56° C | 81% | 1012.1 hPa | - | - | - | - |
| 1777944904 | 10.56° C | 80% | 1012.1 hPa | - | - | - | - |
| 1777943999 | 11.11° C | 80% | 1012.3 hPa | - | - | - | - |
| 1777943093 | 11.11° C | 80% | 1012.5 hPa | - | - | - | - |
| 1777942188 | 11.67° C | 79% | 1012.6 hPa | - | - | - | - |
| 1777941283 | 11.67° C | 79% | 1012.9 hPa | - | - | - | - |
| 1777940377 | 12.22° C | 79% | 1013 hPa | - | - | - | - |
| 1777939471 | 12.78° C | 78% | 1013.2 hPa | - | - | - | - |
| 1777938566 | 13.33° C | 77% | 1013.4 hPa | - | - | - | - |
| 1777937660 | 13.33° C | 77% | 1013.6 hPa | - | - | - | - |
| 1777936755 | 13.33° C | 77% | 1013.5 hPa | - | - | - | - |
| 1777935850 | 13.33° C | 76% | 1013.5 hPa | - | - | - | - |
| 1777934945 | 13.33° C | 75% | 1013.5 hPa | - | - | - | - |
| 1777934039 | 13.89° C | 75% | 1013.6 hPa | - | - | - | - |
| 1777933133 | 13.89° C | 74% | 1013.7 hPa | - | - | - | - |
* Rain since midnight (hover to see other rain measurements)
** Current wind speed in m/s (hover to see current wind gust speed)